Location: Arbon
(43.0005°N, 0.7472°E)
Time: 07:06:39
(UTC+00:00)

Vanguard 1 - Pass Details

Date: 04 December 2020
Orbit: 648 x 3834 km, 34.3° (Epoch: 21 January)

Event Time Altitude Azimuth Distance (km) Brightness Sun altitude
Rises 03:22:02 0° 226° (SW) 2,978 - -41.3°
Reaches altitude 10° 03:24:26 10° 212° (SSW) 2,166 - -40.8°
Maximum altitude 03:28:24 25° 156° (SSE) 1,625 - -40.1°
Exits shadow 03:30:13 22° 128° (SE) 1,913 11.8 -39.8°
Drops below altitude 10° 03:33:46 10° 102° (ESE) 3,002 13.2 -39.1°
Sets 03:37:48 0° 91° (E) 4,452 14.4 -38.4°
